Regional Weather Roundup
Issued by NWS

Home | Current Version | Previous Version | Text Only | Print | Product List | Glossary On
Versions: 1 2 3 4 5 6 7 8 9 10 11 12 13 14 15 16 17 18 19 20 21 22 23 24 25 26 27
000
ASUS45 KREV 180410
RWRNV
NEVADA REGIONAL WEATHER ROUNDUP
NATIONAL WEATHER SERVICE RENO NV
800 PM PST FRI NOV 17 2017

NOTE: "FAIR" INDICATES FEW OR NO CLOUDS BELOW 12,000 FEET WITH NO
SIGNIFICANT WEATHER AND/OR OBSTRUCTIONS TO VISIBILITY.

NVZ001-003-004-180500-
WESTERN NEVADA

CITY           SKY/WX    TMP DP  RH WIND       PRES   REMARKS
RENO           CLEAR     36  23  59 CALM      30.29R
CARSON CITY    FAIR      34  25  69 CALM      30.29R
MINDEN         FAIR      32  25  74 NE5       30.28R
SLIDE MTN        N/A     16  14  93 MISG        N/A
PYRAMID LAKE     N/A     39 N/A N/A SW6         N/A
FALLON         CLEAR     31  20  63 CALM      30.30R
LOVELOCK       CLEAR     26  15  63 CALM      30.30R
HAWTHORNE      CLEAR     36  25  64 CALM      30.30R
$$

NVZ002-CAZ072-073-180500-
NORTHERN AND CENTRAL SIERRA

CITY           SKY/WX    TMP DP  RH WIND       PRES   REMARKS
S. LAKE TAHOE  CLEAR     28  24  85 CALM      30.24R
TRUCKEE        CLEAR     25  23  93 CALM      30.27R
SQUAW VLY 8000   N/A     21  19  93 CALM        N/A
SUSANVILLE     CLEAR    N/A N/A N/A W3        30.29R
BLUE CANYON    CLEAR     35  20  54 NE7       30.21R
MAMMOTH LAKES  FAIR      31  25  78 W10       30.25R
$$

NVZ030-031-036-180500-
NORTHERN NEVADA

CITY           SKY/WX    TMP DP  RH WIND       PRES   REMARKS
ELKO           CLEAR     27  21  78 W3        30.30R
WINNEMUCCA     CLEAR     26  22  84 CALM      30.31R
WENDOVER       CLEAR     35  17  47 N6        30.30R
$$

NVZ035-037-180500-
CENTRAL NEVADA

CITY           SKY/WX    TMP DP  RH WIND       PRES   REMARKS
ELY            PTCLDY    22  17  81 W6        30.28R
EUREKA           N/A     25  20  81 SE3       30.29R
$$

NVZ013-014-180500-
SOUTH CENTRAL NEVADA

CITY           SKY/WX    TMP DP  RH WIND       PRES   REMARKS
TONOPAH        PTCLDY    31  12  45 N12       30.27R
$$

NVZ017-020-022-180500-
SOUTHERN NEVADA

CITY           SKY/WX    TMP DP  RH WIND       PRES   REMARKS
LAS VEGAS      PTCLDY    66  12  12 N26G41    30.05R
N. LAS VEGAS   CLEAR     64   6  10 NW29G37   30.06R
NELLIS AFB     CLEAR     63  20  19 N22G31    30.08R
HENDERSON      CLEAR     64  14  14 N16G29    30.09R
MERCURY        CLEAR     52  11  19 NE12G24   30.17R
$$




USA.gov is the U.S. government's official web portal to all federal, state and local government web resources and services.